EW0427 Weather Reports


Display with metric or nautical units.
time (UTC)temp
F
wind
direction
speed
MPH
gust
MPH
rain 1hr
in
rain 24hr
in
rain mn
in
humidity
%
barometer
mb
20260503233038 56 242 5.0 17.0 0.00 0.00 0.00 46 1012.7
20260503231538 56 252 7.0 18.0 0.00 0.00 0.00 46 1012.7
20260503230040 57 238 7.0 17.0 0.00 0.00 0.00 46 1012.7
20260503224537 57 289 8.0 14.0 0.00 0.00 0.00 46 1012.8
20260503223037 57 300 5.0 16.0 0.00 0.00 0.00 46 1012.9
20260503221541 57 255 11.0 22.0 0.00 0.00 0.00 44 1013.0
20260503220042 58 230 10.0 19.0 0.00 0.00 0.00 43 1012.9
20260503214538 57 271 10.0 21.0 0.00 0.00 0.00 44 1013.1
20260503213051 57 233 10.0 18.0 0.00 0.00 0.00 44 1013.0
20260503211537 57 245 8.0 23.0 0.00 0.00 0.00 45 1012.9
20260503210043 57 249 9.0 18.0 0.00 0.00 0.00 44 1013.0
20260503204550 58 239 9.0 22.0 0.00 0.00 0.00 44 1012.9
20260503203042 58 249 10.0 21.0 0.00 0.00 0.00 43 1013.0
20260503201538 58 248 12.0 22.0 0.00 0.00 0.00 42 1013.0
20260503200037 59 313 14.0 25.0 0.00 0.00 0.00 41 1013.4
20260503194542 59 235 9.0 21.0 0.00 0.00 0.00 42 1013.5
20260503193046 59 175 8.0 29.0 0.00 0.00 0.00 42 1013.8
20260503191535 59 258 13.0 21.0 0.00 0.00 0.00 42 1013.8
20260503190041 58 247 8.0 21.0 0.00 0.00 0.00 42 1014.0
20260503184551 57 246 10.0 24.0 0.00 0.00 0.00 43 1014.1
20260503183058 58 315 8.0 23.0 0.00 0.00 0.00 42 1014.1
20260503181540 58 262 14.0 23.0 0.00 0.00 0.00 42 1014.4
20260503180043 57 242 13.0 23.0 0.00 0.00 0.00 42 1014.5
20260503174536 58 266 13.0 29.0 0.00 0.00 0.00 42 1014.7
20260503173108 57 294 10.0 22.0 0.00 0.00 0.00 44 1014.8
20260503171542 57 290 11.0 24.0 0.00 0.00 0.00 44 1015.0
20260503081539 34 307 0.0 3.0 0.00 0.06 0.00 87 1016.2
20260503071539 34 307 2.0 4.0 0.00 0.06 0.00 86 1016.1
20260503054539 34 0 0.0 2.0 0.00 0.07 0.00 84 1016.5
20260503053042 34 0 0.0 2.0 0.00 0.07 0.00 84 1016.6
20260503051540 35 0 0.0 1.0 0.00 0.07 0.00 84 1016.7
20260503050038 35 0 0.0 2.0 0.00 0.07 0.00 83 1016.8
20260503044540 36 0 0.0 3.0 0.00 0.07 0.00 83 1016.9
20260503043041 37 0 0.0 1.0 0.00 0.07 0.00 82 1016.8
20260503041537 37 0 0.0 2.0 0.00 0.07 0.00 81 1016.8
20260503040050 37 0 0.0 2.0 0.00 0.07 0.00 82 1017.0
20260503034558 37 307 1.0 3.0 0.00 0.07 0.07 82 1016.9
20260503033044 37 307 0.0 3.0 0.00 0.07 0.07 83 1016.9
20260503031541 38 307 0.0 2.0 0.00 0.07 0.07 84 1017.1
20260503030048 38 0 0.0 1.0 0.00 0.07 0.07 84 1017.1
20260503024536 38 0 0.0 0.0 0.00 0.07 0.07 83 1017.4
20260503023041 38 0 0.0 0.0 0.00 0.07 0.07 83 1017.5
20260503021544 38 0 0.0 0.0 0.00 0.07 0.07 82 1017.5
20260503020041 38 0 0.0 0.0 0.00 0.07 0.07 81 1017.4
20260503014540 39 0 0.0 1.0 0.00 0.07 0.07 79 1017.4
20260503013037 39 0 0.0 0.0 0.00 0.07 0.07 78 1017.4
20260503011537 39 0 0.0 1.0 0.00 0.07 0.07 75 1017.4
20260503010041 39 0 0.0 0.0 0.00 0.07 0.07 75 1017.4
20260503004538 39 0 0.0 3.0 0.00 0.07 0.07 72 1017.3
20260503003038 39 0 0.0 3.0 0.00 0.07 0.07 71 1017.3
20260503001538 40 307 1.0 4.0 0.00 0.07 0.07 69 1017.3
20260503000036 40 307 2.0 5.0 0.00 0.07 0.07 69 1017.1
20260502234536 40 307 2.0 7.0 0.00 0.07 0.07 68 1017.1